Regional Weather Roundup
Issued by NWS Sioux Falls, SD

Home | Current Version | Previous Version | Graphics & Text | Print | Product List | Glossary Off
Versions: 1 2 3 4 5 6 7 8 9 10 11 12 13 14 15 16 17 18 19 20 21 22 23 24 25 26 27 28 29 30 31 32 33 34 35 36 37 38 39 40 41 42 43 44 45 46 47 48 49 50

000
ASUS43 KFSD 300502
RWRFSD

WEATHER ROUNDUP FOR SE SOUTH DAKOTA/SW MINNESOTA/NW IOWA
NATIONAL WEATHER SERVICE SIOUX FALLS SD
1200 AM CDT THU JUL 30 2015

NOTE: "FAIR" INDICATES FEW OR NO CLOUDS BELOW 12,000 FEET WITH NO
SIGNIFICANT WEATHER AND OR OBSTRUCTIONS TO VISIBILITY.


SDZ038>040-050-052>070-300600-
SOUTHEAST SOUTH DAKOTA

CITY           SKY/WX    TMP DP  RH WIND       PRES   REMARKS
BROOKINGS      CLEAR     64  54  68 CALM      30.12R
CHAMBERLAIN    PTCLDY    63  55  73 CALM      30.13R
HURON          CLEAR     65  59  81 SW7       30.09R
MADISON        FAIR      64  55  72 SW6       30.12S
MITCHELL       CLEAR     65  57  75 S7        30.11R
SIOUX FALLS    CLEAR     63  59  87 CALM      30.11R
WINNER         FAIR      71  50  47 S6        30.15S
YANKTON        CLEAR     72  54  53 SW6       30.10S
$$

MNZ071-072-080-081-089-090-097-098-300600-
SOUTHWEST MINNESOTA

CITY           SKY/WX    TMP DP  RH WIND       PRES   REMARKS
FAIRMONT       CLEAR     66  55  68 W8        30.08R
JACKSON        CLEAR     68  59  73 SW6       30.11R
LUVERNE        CLEAR     64  57  77 N3        30.11S
MARSHALL       CLEAR     63  54  72 W10       30.08S
MONTEVIDEO     CLEAR     64  52  63 W5        30.06S
PIPESTONE      CLEAR     63  57  82 CALM      30.12R
REDWOOD FALLS  CLEAR     68  55  63 W7        30.04R
TRACY          CLEAR     64  57  77 W7        30.09R
WINDOM         CLEAR     63  57  82 CALM      30.09S
WORTHINGTON    CLEAR     64  55  72 SW8       30.12R
$$

IAZ001>003-012>014-020>022-031-032-NEZ013-014-SDZ071-300600-
NORTHWEST IOWA

CITY           SKY/WX    TMP DP  RH WIND       PRES   REMARKS
DENISON        CLEAR     66  61  82 VRB5      30.13S
ESTHERVILLE    CLEAR     60  58  92 W7        30.10R
SIOUX CITY     CLEAR     67  60  78 SW8       30.13S
SPENCER        CLEAR     62  58  86 W6        30.12R
$$

ABBREVIATIONS USED IN REMARKS
   TC - TEMPERATURE IN CELSIUS
  WCI - WIND CHILL INDEX
   HX - HEAT INDEX
  VSB - VISIBILITY



USA.gov is the U.S. government's official web portal to all federal, state and local government web resources and services.